Погода в Солотвине

Украина / Ивано-Франковская область     48°42′19″N   24°25′22″E
темп.,
°C
ветер,
м/с
пор.,
м/с
влажн.,
%
обл.,
%
осадки,
мм/ч
давл.,
гПа
погр.,
м
27 октября, ср
ср2700:00+5зюз226457 0.0 102410
03:00+3зюз226282 0.0 102610
06:00+4юз2253100 0.0 102611
09:00+4зюз22517 0.0 102718
12:00+11зюз124068 0.0 1027287
15:00+14ссз344314 0.0 10251219
18:00+8св016650 0.0 102610
21:00+7юз227369 0.0 102812
28 октября, чт
чт2800:00+6юз227433 0.0 102813
03:00+6юз227557 0.0 102711
06:00+6юз2270100 0.0 102719
09:00+7юз11625 0.0 102712
12:00+13св11436 0.0 1027347
15:00+15вюв1139100 0.0 1025512
18:00+10вюв115696 0.0 102510
21:00+8ююз226551 0.0 102710
29 октября, пт
пт2900:00+7ююв11695 0.0 102710
03:00+6ююв12715 0.0 102610
06:00+5юв227328 0.0 102612
09:00+6юв227026 0.0 102625
12:00+13вюв464764 0.0 1024393
15:00+16вюв563971 0.0 1022674
18:00+12юв475364 0.0 1022135
21:00+8юв22696 0.0 102332
30 октября, сб
сб3000:00+7юв11755 0.0 102321
03:00+6ююв11710 0.0 102312
06:00+6ююв11715 0.0 102311
09:00+6юв11685 0.0 102413
12:00+13в22505 0.0 1023280
15:00+15вюв33455 0.0 1022416
18:00+11юв11595 0.0 102211
21:00+8ю11710 0.0 102312
31 октября, вс
вс3100:00+7ю11740 0.0 102311
03:00+6ююв11710 0.0 102311
05:00+5ююв11720 0.0 102212
08:00+5юв11700 0.0 102221
11:00+12вюв34510 0.0 1019318
14:00+15вюв45390 0.0 1017512
17:00+10вюв35540 0.0 101681
20:00+7ююв11660 0.0 101726